Location: Sternwarte Radebeul
(51.1160°N, 13.6224°E)
Time: 17:35:55
(UTC+01:00)

ISS - Visible Passes

Search period start: 17 January 2020 00:00
Search period end: 27 January 2020 00:00
Orbit: 415 x 421 km, 51.6° (Epoch: 18 January)

Date Brightness Start Highest point End Pass type
(mag) Time Alt. Az. Time Alt. Az. Time Alt. Az.
21 Jan -1.2 19:13:11 10° SSW 19:14:05 16° SSW 19:14:05 16° SSW visible
22 Jan -2.1 18:25:43 10° SSW 18:28:16 21° SE 18:28:16 21° SE visible
23 Jan -1.6 17:38:34 10° S 17:40:29 14° SE 17:42:24 10° ESE visible
23 Jan -2.1 19:13:26 10° SW 19:15:21 30° SW 19:15:21 30° SW visible
24 Jan -3.1 18:25:35 10° SW 18:28:47 40° SSE 18:29:24 35° ESE visible
24 Jan -0.4 20:02:03 10° W 20:02:20 12° W 20:02:20 12° W visible
25 Jan -2.4 17:37:54 10° SSW 17:40:51 29° SSE 17:43:24 12° E visible
25 Jan -2.5 19:14:00 10° WSW 19:16:20 42° WSW 19:16:20 42° WSW visible
26 Jan -3.7 18:25:59 10° WSW 18:29:21 69° SSE 18:30:18 42° E visible
26 Jan -0.4 20:02:46 10° W 20:03:14 13° W 20:03:14 13° W visible
